Location: *
(32.8140°S, 174.6161°E)
Time: 23:04:00
(UTC+00:00)

MOZ.5/SAFIR/RUBIN 5/SL-8 - Pass Details

Date: 10 December 2019
Orbit: 677 x 707 km, 98.1° (Epoch: 18 January)

Event Time Altitude Azimuth Distance (km) Brightness Sun altitude
Rises 15:07:50 0° 174° (S) 3,091 8.0 -20.6°
Reaches altitude 10° 15:10:08 10° 179° (S) 2,172 7.0 -20.2°
Maximum altitude 15:14:45 53° 254° (WSW) 865 4.1 -19.6°
Enters shadow 15:16:03 40° 303° (WNW) 1,031 4.2 -19.4°
